Date String (YYYY-MM-DD hh:mm:ss) UTC,Instrument flags,absolute air pressure of the measurement (hPa),sample flow rate (lpm),inlet stack bypass flow (lpm),air temperature of the measurement (°C),ambient temperature measured by the external sensor (°C),aerosol sample conditioner tube jacket temperature (°C),OPC LED temperature (°C),internal box temperature (°C),relative humidity of the measurement (%),span deviation,mass concentration of particles derived from Lorenz-Mie calculation of OPC scattering (μg/m³),mass concentration of particles derived from Lorenz-Mie calculation of OPC scattering (μg/m³),mass concentration of particles derived from Lorenz-Mie calculation of OPC scattering (μg/m³)
DateTimeUTC,F1_M11,P_M11,Q1_M11,Q2_M11,T1_M11,T2_M11,T3_M11,T4_M11,T5_M11,U1_M11,ZSPAN_M11,X0_M11,X2_M11,X1_M11
2024-01-01 21:00:00,SystemResetWarning,0829.7,5.00,000.00,025.4,024.8,000.0,033.6,026.9,10.5,0000.0,0003.01,0002.22,0002.03
2024-01-01 21:01:00,SystemResetWarning,0829.7,5.00,000.00,025.4,024.8,000.0,033.6,026.9,10.5,0000.0,0003.08,0002.23,0002.04
2024-01-01 21:02:00,SystemResetWarning,0829.7,5.00,000.00,025.4,024.9,000.0,033.6,026.9,10.6,0000.0,0003.89,0002.29,0002.05
2024-01-01 21:03:00,SystemResetWarning,0829.7,5.00,000.00,025.5,024.9,000.0,033.6,026.9,10.5,0000.0,0004.21,0002.33,0002.08
2024-01-01 21:04:00,SystemResetWarning,0829.7,5.00,000.00,025.5,024.9,000.0,033.6,027.0,10.5,0000.0,0004.02,0002.38,0002.12
2024-01-01 21:05:00,SystemResetWarning,0829.8,5.00,000.00,025.5,024.9,000.0,033.6,027.0,10.4,0000.0,0003.89,0002.44,0002.18
2024-01-01 21:06:00,SystemResetWarning,0829.7,5.01,000.00,025.5,024.9,000.0,033.6,027.0,10.4,0000.0,0004.15,0002.56,0002.25
2024-01-01 21:07:00,SystemResetWarning,0829.8,5.00,000.00,025.5,024.9,000.0,033.7,027.0,10.4,0000.0,0004.26,0002.62,0002.32
2024-01-01 21:08:00,SystemResetWarning,0829.8,5.00,000.00,025.5,024.9,000.0,033.7,027.0,10.4,0000.0,0004.44,0002.69,0002.38
2024-01-01 21:09:00,SystemResetWarning,0829.8,5.00,000.00,025.6,025.0,000.0,033.7,027.0,10.3,0000.0,0004.43,0002.69,0002.40
2024-01-01 21:10:00,SystemResetWarning,0829.8,5.00,000.00,025.6,025.0,000.0,033.7,027.0,10.3,0000.0,0004.35,0002.70,0002.43
2024-01-01 21:11:00,SystemResetWarning,0829.8,4.99,000.00,025.6,025.0,000.0,033.7,027.0,10.4,0000.0,0004.37,0002.73,0002.47
2024-01-01 21:12:00,SystemResetWarning,0829.8,5.00,000.00,025.6,025.0,000.0,033.7,027.0,10.3,0000.0,0004.34,0002.73,0002.49
2024-01-01 21:13:00,SystemResetWarning,0829.8,5.00,000.00,025.6,025.0,000.0,033.7,027.1,10.2,0000.0,0003.72,0002.74,0002.51
2024-01-01 21:14:00,SystemResetWarning,0829.8,5.00,000.00,025.6,025.0,000.0,033.8,027.0,10.2,0000.0,0003.46,0002.76,0002.53
2024-01-01 21:15:00,SystemResetWarning,0829.8,5.00,000.00,025.6,025.0,000.0,033.8,027.1,10.2,0000.0,0003.56,0002.76,0002.53
2024-01-01 21:16:00,SystemResetWarning,0829.8,5.01,000.00,025.6,025.0,000.0,033.8,027.1,10.2,0000.0,0003.57,0002.75,0002.52
2024-01-01 21:17:00,SystemResetWarning,0829.8,5.00,000.00,025.7,025.0,000.0,033.8,027.1,10.3,0000.0,0003.35,0002.67,0002.48
2024-01-01 21:18:00,SystemResetWarning,0829.8,5.01,000.00,025.7,025.1,000.0,033.8,027.1,10.2,0000.0,0004.12,0002.62,0002.43
2024-01-01 21:19:00,SystemResetWarning,0829.9,5.00,000.00,025.7,025.1,000.0,033.8,027.1,10.1,0000.0,0005.05,0002.58,0002.39
2024-01-01 21:20:00,SystemResetWarning,0829.8,5.00,000.00,025.7,025.1,000.0,033.8,027.1,10.1,0000.0,0005.60,0002.59,0002.36
2024-01-01 21:21:00,SystemResetWarning,0829.9,5.00,000.00,025.7,025.1,000.0,033.9,027.1,10.1,0000.0,0005.65,0002.60,0002.33
2024-01-01 21:22:00,SystemResetWarning,0829.9,5.00,000.00,025.7,025.1,000.0,033.9,027.1,10.2,0000.0,0005.71,0002.60,0002.30
2024-01-01 21:23:00,SystemResetWarning,0829.9,5.00,000.00,025.7,025.1,000.0,033.9,027.2,10.4,0000.0,0005.74,0002.60,0002.28
2024-01-01 21:24:00,SystemResetWarning,0829.9,4.99,000.00,025.7,025.1,000.0,033.9,027.2,11.4,0000.0,0005.63,0002.53,0002.26
2024-01-01 21:25:00,SystemResetWarning,0829.9,5.00,000.00,025.8,025.1,000.0,033.9,027.2,11.6,0000.0,0005.44,0002.49,0002.23
2024-01-01 21:26:00,SystemResetWarning,0830.0,5.00,000.00,025.8,025.1,000.0,033.9,027.2,11.7,0000.0,0005.29,0002.46,0002.22
2024-01-01 21:27:00,SystemResetWarning,0829.9,5.00,000.00,025.8,025.2,000.0,033.9,027.2,11.7,0000.0,0005.39,0002.46,0002.20
2024-01-01 21:28:00,SystemResetWarning,0829.9,5.00,000.00,025.8,025.2,000.0,034.0,027.2,11.8,0000.0,0005.70,0002.44,0002.18
2024-01-01 21:29:00,SystemResetWarning,0830.0,5.01,000.00,025.8,025.2,000.0,034.0,027.2,11.8,0000.0,0005.45,0002.46,0002.16
2024-01-01 21:30:00,SystemResetWarning,0829.9,5.00,000.00,025.8,025.2,000.0,034.0,027.3,11.7,0000.0,0004.41,0002.45,0002.14
2024-01-01 21:31:00,SystemResetWarning,0830.0,5.00,000.00,025.8,025.2,000.0,034.0,027.2,11.8,0000.0,0003.88,0002.41,0002.12
2024-01-01 21:32:00,SystemResetWarning,0830.0,5.00,000.00,025.8,025.2,000.0,034.0,027.3,11.8,0000.0,0003.93,0002.39,0002.11
2024-01-01 21:33:00,SystemResetWarning,0830.0,5.00,000.00,025.8,025.2,000.0,034.0,027.3,11.8,0000.0,0004.02,0002.37,0002.09
2024-01-01 21:34:00,SystemResetWarning,0830.0,4.99,000.00,025.8,025.2,000.0,034.0,027.3,11.8,0000.0,0004.32,0002.36,0002.08
2024-01-01 21:35:00,SystemResetWarning,0830.0,5.00,000.00,025.9,025.2,000.0,034.0,027.3,11.8,0000.0,0004.80,0002.65,0002.34
2024-01-01 21:36:00,SystemResetWarning,0830.0,4.99,000.00,025.9,025.2,000.0,034.1,027.3,11.8,0000.0,0005.48,0003.07,0002.73
2024-01-01 21:37:00,SystemResetWarning,0830.0,5.00,000.00,025.9,025.2,000.0,034.1,027.3,11.8,0000.0,0006.77,0003.34,0003.11
2024-01-01 21:38:00,SystemResetWarning,0830.0,5.00,000.00,025.9,025.2,000.0,034.1,027.3,11.8,0000.0,0007.34,0003.59,0003.37
2024-01-01 21:39:00,SystemResetWarning,0830.0,5.00,000.00,025.9,025.2,000.0,034.1,027.3,11.7,0000.0,0007.62,0003.86,0003.63
2024-01-01 21:40:00,SystemResetWarning,0829.9,5.00,000.00,025.9,025.2,000.0,034.1,027.3,11.6,0000.0,0007.71,0004.10,0003.86
2024-01-01 21:41:00,SystemResetWarning,0829.9,5.01,000.00,025.9,025.2,000.0,034.1,027.3,11.6,0000.0,0008.32,0004.37,0004.10
2024-01-01 21:42:00,SystemResetWarning,0829.9,5.01,000.00,025.9,025.2,000.0,034.1,027.3,11.6,0000.0,0008.73,0004.64,0004.31
2024-01-01 21:43:00,SystemResetWarning,0829.9,5.00,000.00,025.9,025.2,000.0,034.1,027.3,11.6,0000.0,0009.05,0004.88,0004.54
2024-01-01 21:44:00,SystemResetWarning,0829.9,5.00,000.00,025.9,025.2,000.0,034.1,027.2,11.5,0000.0,0009.71,0005.11,0004.76
2024-01-01 21:45:00,SystemResetWarning,0829.9,4.99,000.00,025.9,025.2,000.0,034.1,027.2,11.4,0000.0,0010.27,0005.30,0004.92
2024-01-01 21:46:00,SystemResetWarning,0829.9,4.99,000.00,025.9,025.2,000.0,034.1,027.2,11.5,0000.0,0010.48,0005.48,0005.10
2024-01-01 21:47:00,SystemResetWarning,0829.9,5.00,000.00,025.9,025.2,000.0,034.1,027.2,11.4,0000.0,0010.39,0005.49,0005.13
2024-01-01 21:48:00,SystemResetWarning,0829.9,5.00,000.00,025.9,025.2,000.0,034.1,027.2,11.3,0000.0,0010.10,0005.45,0005.11
2024-01-01 21:49:00,SystemResetWarning,0829.9,5.01,000.00,025.9,025.2,000.0,034.2,027.2,11.2,0000.0,0010.10,0005.43,0005.09
2024-01-01 21:50:00,SystemResetWarning,0829.9,5.00,000.00,025.9,025.2,000.0,034.2,027.2,11.2,0000.0,0010.68,0005.43,0005.08
2024-01-01 21:51:00,SystemResetWarning,0830.0,5.00,000.00,025.9,025.2,000.0,034.2,027.2,10.9,0000.0,0010.73,0005.43,0005.08
2024-01-01 21:52:00,SystemResetWarning,0830.0,5.00,000.00,025.9,025.2,000.0,034.2,027.1,11.0,0000.0,0010.32,0005.44,0005.11
2024-01-01 21:53:00,SystemResetWarning,0830.0,4.99,000.00,025.9,025.2,000.0,034.2,027.1,11.0,0000.0,0010.14,0005.41,0005.14
2024-01-01 21:54:00,SystemResetWarning,0830.0,5.00,000.00,025.9,025.2,000.0,034.2,027.2,10.9,0000.0,0010.13,0005.45,0005.18
2024-01-01 21:55:00,SystemResetWarning,0830.1,5.00,000.00,025.9,025.2,000.0,034.2,027.2,10.9,0000.0,0010.11,0005.48,0005.22
2024-01-01 21:56:00,SystemResetWarning,0830.0,5.00,000.00,025.9,025.2,000.0,034.2,027.2,10.8,0003.8,0009.64,0005.45,0005.22
2024-01-01 21:57:00,SystemResetWarning,0830.0,5.00,000.00,025.9,025.2,000.0,034.2,027.2,10.7,0004.7,0009.41,0005.44,0005.22
2024-01-01 21:58:00,SystemResetWarning,0830.0,5.00,000.00,025.9,025.2,000.0,034.2,027.2,10.9,0000.4,0009.58,0005.46,0005.21
2024-01-01 21:59:00,SystemResetWarning,0830.0,5.00,000.00,025.9,025.2,000.0,034.2,027.1,10.7,0000.0,0009.69,0005.46,0005.19
